Location: Bednik
(45.3500°N, 16.3833°E)
Time: 05:36:21
(UTC+00:00)

Cosmos 1535 Rocket - Pass Details

Date: 08 August 2020
Orbit: 949 x 1003 km, 83.0° (Epoch: 19 September)

Event Time Altitude Azimuth Distance (km) Brightness Sun altitude
Exits shadow 20:08:44 10° 189° (S) 2,696 6.5 -17.6°
Reaches altitude 10° 20:08:45 10° 189° (S) 2,690 6.5 -17.6°
Maximum altitude 20:14:55 84° 278° (W) 966 4.5 -18.3°
Drops below altitude 10° 20:21:04 10° 7° (N) 2,685 7.4 -19.0°
Sets 20:23:34 0° 8° (N) 3,633 8.1 -19.3°
